Weather Roundup
Issued by NWS Springfield, MO

Home | Current Version | Previous Version | Text Only | Print | Product List | Glossary On
Versions: 1 2 3 4 5 6 7 8 9 10 11 12 13 14 15 16 17 18 19 20 21 22 23 24 25 26 27 28 29 30 31 32 33 34 35 36 37 38 39 40 41 42 43 44 45 46 47 48 49 50
000
NZUS99 KSGF 190507
HRRSGF

HOURLY WEATHER
NATIONAL WEATHER SERVICE SPRINGFIELD MO
1200 AM CDT THU OCT 19 2017

......SGF CWA......

CITY           SKY/WX    TMP DP  RH WIND       PRES   REMARKS
SPRINGFIELD    CLEAR     59  45  59 S12       30.10S
JOPLIN         CLOUDY    55  48  77 S8        30.10R
WEST PLAINS    CLEAR     60  48  64 S8        30.16S
ROLLA          CLEAR     59  48  67 S14       30.11S
OSAGE BEACH    CLEAR     55  47  74 S3        30.12R
BRANSON        CLEAR     54  46  76 CALM      30.14S

......SURROUNDING SGF CWA......

CITY           SKY/WX    TMP DP  RH WIND       PRES   REMARKS
CHANUTE        CLOUDY    56  48  74 S8        30.08R
PARSONS        CLEAR     56  48  74 S3        30.09S
COFFEYVILLE    CLEAR     53  48  83 SE6       30.08S
EMPORIA        CLOUDY    54  48  80 S9        30.05S
GROVE OK       PTCLDY    52  46  82 CALM      30.12R
ROGERS AR      CLEAR     58  47  66 SE8       30.13S
SILOAM SPRINGS CLEAR     55  47  74 SE8       30.12F
HARRISON AR    CLEAR     62  48  60 S8        30.13S
NEAR YELLVILLE CLEAR     60  49  66 S3        30.14S

......KANSAS AND MISSOURI......

CITY           SKY/WX    TMP DP  RH WIND       PRES   REMARKS
KANSAS CTY INT CLEAR     57  51  80 SW9       30.05R
DOWNTOWN KC    CLEAR     61  51  70 S8        30.05R
COLUMBIA       CLEAR     56  46  69 S8        30.09S
SEDALIA        CLEAR     60  51  72 S8        30.10R
ST JOSEPH      CLEAR     48  48 100 CALM      30.04S
ST LOUIS       CLEAR     61  49  64 S7        30.11S
SPIRIT OF STL  CLEAR     56  49  77 CALM      30.10R
KIRKSVILLE     CLEAR     51  49  92 CALM      30.07S
WICHITA        CLOUDY    58  50  75 S9        30.05R
TOPEKA         CLEAR     53  53 100 CALM      30.04R
OLATHE         CLEAR     57  50  77 SW5       30.07R

......TENNESSEE......

CITY           SKY/WX    TMP DP  RH WIND       PRES   REMARKS
MEMPHIS        CLEAR     60  47  61 S7        30.18F
NASHVILLE      CLEAR     50  44  80 S6        30.23F

......ARKANSAS.......

CITY           SKY/WX    TMP DP  RH WIND       PRES   REMARKS
FAYETTEVILLE   CLEAR     49  46  90 CALM      30.12F
FT SMITH       CLEAR     57  52  83 NE3       30.13S
LITTLE ROCK    PTCLDY    55  52  89 S8        30.17F

......OKLAHOMA.......

CITY           SKY/WX    TMP DP  RH WIND       PRES   REMARKS
TULSA          PTCLDY    65  47  52 S12       30.08S
PONCA CITY     PTCLDY    65  48  54 S5        30.07R
MCALESTER      CLOUDY    54  49  83 CALM      30.12S
OKLAHOMA CITY  MOCLDY    57  46  66 S9        30.08S

......IOWA............

CITY           SKY/WX    TMP DP  RH WIND       PRES   REMARKS
DES MOINES     CLOUDY    57  48  72 W3        30.03S
QUAD CITIES    CLEAR     58  43  57 SW3       30.03F

......ILLINOIS........

CITY           SKY/WX    TMP DP  RH WIND       PRES   REMARKS
QUINCY         CLEAR     56  44  64 S7        30.08S
CHICAGO        PTCLDY    61  44  53 SW14G20   30.03F




USA.gov is the U.S. government's official web portal to all federal, state and local government web resources and services.